Year,Month,Day,Hour,Minute,Value (Times are PST for temperature in C)
2008,03,26,00,00,5.30
2008,03,26,00,01,5.30
2008,03,26,00,02,5.30
2008,03,26,00,03,5.30
2008,03,26,00,04,5.30
2008,03,26,00,05,5.30
2008,03,26,00,06,5.20
2008,03,26,00,07,5.20
2008,03,26,00,08,5.20
2008,03,26,00,09,5.20
2008,03,26,00,10,5.20
2008,03,26,00,11,5.20
2008,03,26,00,12,5.20
2008,03,26,00,13,5.10
2008,03,26,00,14,5.10
2008,03,26,00,15,5.10
2008,03,26,00,16,5.10
2008,03,26,00,17,5.10
2008,03,26,00,18,5.10
2008,03,26,00,19,5.10
2008,03,26,00,20,5.10
2008,03,26,00,21,5.10
2008,03,26,00,22,5.10
2008,03,26,00,23,5.10
2008,03,26,00,24,5.10
2008,03,26,00,25,5.10
2008,03,26,00,26,5.10
2008,03,26,00,27,5.10
2008,03,26,00,28,5.10
2008,03,26,00,29,5.10
2008,03,26,00,30,5.10
2008,03,26,00,31,5.10
2008,03,26,00,32,5.10
2008,03,26,00,33,5.00
2008,03,26,00,34,5.00
2008,03,26,00,35,5.00
2008,03,26,00,36,5.00
2008,03,26,00,37,5.00
2008,03,26,00,38,4.90
2008,03,26,00,39,4.90
2008,03,26,00,40,4.90
2008,03,26,00,41,4.90
2008,03,26,00,42,4.90
2008,03,26,00,43,4.90
2008,03,26,00,44,4.90
2008,03,26,00,45,4.90
2008,03,26,00,46,4.90
2008,03,26,00,47,4.90
2008,03,26,00,48,4.90
2008,03,26,00,49,4.90
2008,03,26,00,50,4.90
2008,03,26,00,51,4.90
2008,03,26,00,52,4.90
2008,03,26,00,53,4.90
2008,03,26,00,54,4.90
2008,03,26,00,55,4.80
2008,03,26,00,56,4.80
2008,03,26,00,57,4.80
2008,03,26,00,58,4.80
2008,03,26,00,59,4.80
2008,03,26,01,00,4.80
2008,03,26,01,01,4.80
2008,03,26,01,02,4.80
2008,03,26,01,03,4.80
2008,03,26,01,04,4.80
2008,03,26,01,05,4.80
2008,03,26,01,06,4.70
2008,03,26,01,07,4.70
2008,03,26,01,08,4.70
2008,03,26,01,09,4.70
2008,03,26,01,10,4.70
2008,03,26,01,11,4.70
2008,03,26,01,12,4.70
2008,03,26,01,13,4.70
2008,03,26,01,14,4.70
2008,03,26,01,15,4.70
2008,03,26,01,16,4.70
2008,03,26,01,17,4.70
2008,03,26,01,18,4.70
2008,03,26,01,19,4.70
2008,03,26,01,20,4.70
2008,03,26,01,21,4.70
2008,03,26,01,22,4.70
2008,03,26,01,23,4.70
2008,03,26,01,24,4.70
2008,03,26,01,25,4.70
2008,03,26,01,26,4.70
2008,03,26,01,27,4.70
2008,03,26,01,28,4.70
2008,03,26,01,29,4.70
2008,03,26,01,30,4.70
2008,03,26,01,31,4.70
2008,03,26,01,32,4.70
2008,03,26,01,33,4.70
2008,03,26,01,34,4.70
2008,03,26,01,35,4.70
2008,03,26,01,36,4.70
2008,03,26,01,37,4.70
2008,03,26,01,38,4.70
2008,03,26,01,39,4.70
2008,03,26,01,40,4.70
2008,03,26,01,41,4.70
2008,03,26,01,42,4.70
2008,03,26,01,43,4.70
2008,03,26,01,44,4.60
2008,03,26,01,45,4.70
2008,03,26,01,46,4.70
2008,03,26,01,47,4.70
2008,03,26,01,48,4.70
2008,03,26,01,49,4.70
2008,03,26,01,50,4.70
2008,03,26,01,51,4.70
2008,03,26,01,52,4.70
2008,03,26,01,53,4.70
2008,03,26,01,54,4.70
2008,03,26,01,55,4.70
2008,03,26,01,56,4.70
2008,03,26,01,57,4.60
2008,03,26,01,58,4.60
2008,03,26,01,59,4.60
2008,03,26,02,00,4.60
2008,03,26,02,01,4.60
2008,03,26,02,02,4.60
2008,03,26,02,03,4.60
2008,03,26,02,04,4.60
2008,03,26,02,05,4.60
2008,03,26,02,06,4.60
2008,03,26,02,07,4.60
2008,03,26,02,08,4.60
2008,03,26,02,09,4.60
2008,03,26,02,10,4.50
2008,03,26,02,11,4.50
2008,03,26,02,12,4.50
2008,03,26,02,13,4.50
2008,03,26,02,14,4.50
2008,03,26,02,15,4.40
2008,03,26,02,16,4.40
2008,03,26,02,17,4.40
2008,03,26,02,18,4.30
2008,03,26,02,19,4.30
2008,03,26,02,20,4.30
2008,03,26,02,21,4.30
2008,03,26,02,22,4.20
2008,03,26,02,23,4.20
2008,03,26,02,24,4.20
2008,03,26,02,25,4.20
2008,03,26,02,26,4.10
2008,03,26,02,27,4.10
2008,03,26,02,28,4.10
2008,03,26,02,29,4.10
2008,03,26,02,30,4.00
2008,03,26,02,31,4.00
2008,03,26,02,32,4.00
2008,03,26,02,33,4.00
2008,03,26,02,34,4.00
2008,03,26,02,35,3.90
2008,03,26,02,36,3.90
2008,03,26,02,37,3.90
2008,03,26,02,38,3.80
2008,03,26,02,39,3.80
2008,03,26,02,40,3.80
2008,03,26,02,41,3.70
2008,03,26,02,42,3.70
2008,03,26,02,43,3.70
2008,03,26,02,44,3.70
2008,03,26,02,45,3.70
2008,03,26,02,46,3.70
2008,03,26,02,47,3.60
2008,03,26,02,48,3.60
2008,03,26,02,49,3.50
2008,03,26,02,50,3.50
2008,03,26,02,51,3.50
2008,03,26,02,52,3.40
2008,03,26,02,53,3.40
2008,03,26,02,54,3.40
2008,03,26,02,55,3.50
2008,03,26,02,56,3.40
2008,03,26,02,57,3.40
2008,03,26,02,58,3.30
2008,03,26,02,59,3.30
2008,03,26,03,00,3.20
2008,03,26,03,01,3.20
2008,03,26,03,02,3.10
2008,03,26,03,03,3.10
2008,03,26,03,04,3.00
2008,03,26,03,05,3.00
2008,03,26,03,06,2.90
2008,03,26,03,07,2.90
2008,03,26,03,08,2.90
2008,03,26,03,09,2.90
2008,03,26,03,10,2.90
2008,03,26,03,11,2.90
2008,03,26,03,12,2.90
2008,03,26,03,13,2.90
2008,03,26,03,14,2.80
2008,03,26,03,15,2.80
2008,03,26,03,16,2.80
2008,03,26,03,17,2.70
2008,03,26,03,18,2.70
2008,03,26,03,19,2.70
2008,03,26,03,20,2.60
2008,03,26,03,21,2.60
2008,03,26,03,22,2.50
2008,03,26,03,23,2.50
2008,03,26,03,24,2.50
2008,03,26,03,25,2.40
2008,03,26,03,26,2.40
2008,03,26,03,27,2.40
2008,03,26,03,28,2.40
2008,03,26,03,29,2.40
2008,03,26,03,30,2.40
2008,03,26,03,31,2.40
2008,03,26,03,32,2.40
2008,03,26,03,33,2.40
2008,03,26,03,34,2.40
2008,03,26,03,35,2.30
2008,03,26,03,36,2.30
2008,03,26,03,37,2.10
2008,03,26,03,38,2.00
2008,03,26,03,39,1.90
2008,03,26,03,40,1.90
2008,03,26,03,41,1.80
2008,03,26,03,42,1.80
2008,03,26,03,43,1.70
2008,03,26,03,44,1.70
2008,03,26,03,45,1.70
2008,03,26,03,46,1.70
2008,03,26,03,47,1.70
2008,03,26,03,48,1.70
2008,03,26,03,49,1.70
2008,03,26,03,50,1.70
2008,03,26,03,51,1.70
2008,03,26,03,52,1.70
2008,03,26,03,53,1.70
2008,03,26,03,54,1.70
2008,03,26,03,55,1.70
2008,03,26,03,56,1.70
2008,03,26,03,57,1.70
2008,03,26,03,58,1.70
2008,03,26,03,59,1.70
2008,03,26,04,00,1.70
2008,03,26,04,01,1.70
2008,03,26,04,02,1.60
2008,03,26,04,03,1.60
2008,03,26,04,04,1.60
2008,03,26,04,05,1.60
2008,03,26,04,06,1.50
2008,03,26,04,07,1.50
2008,03,26,04,08,1.50
2008,03,26,04,09,1.50
2008,03,26,04,10,1.40
2008,03,26,04,11,1.30
2008,03,26,04,12,1.30
2008,03,26,04,13,1.30
2008,03,26,04,14,1.30
2008,03,26,04,15,1.30
2008,03,26,04,16,1.40
2008,03,26,04,17,1.50
2008,03,26,04,18,1.70
2008,03,26,04,19,1.70
2008,03,26,04,20,1.70
2008,03,26,04,21,1.70
2008,03,26,04,22,1.70
2008,03,26,04,23,1.70
2008,03,26,04,24,1.60
2008,03,26,04,25,1.70
2008,03,26,04,26,1.80
2008,03,26,04,27,2.00
2008,03,26,04,28,2.10
2008,03,26,04,29,2.10
2008,03,26,04,30,2.40
2008,03,26,04,31,2.60
2008,03,26,04,32,2.80
2008,03,26,04,33,2.90
2008,03,26,04,34,2.90
2008,03,26,04,35,3.00
2008,03,26,04,36,3.10
2008,03,26,04,37,3.20
2008,03,26,04,38,3.30
2008,03,26,04,39,3.30
2008,03,26,04,40,3.40
2008,03,26,04,41,3.40
2008,03,26,04,42,3.50
2008,03,26,04,43,3.50
2008,03,26,04,44,3.60
2008,03,26,04,45,3.60
2008,03,26,04,46,3.60
2008,03,26,04,47,3.60
2008,03,26,04,48,3.70
2008,03,26,04,49,3.70
2008,03,26,04,50,3.70
2008,03,26,04,51,3.70
2008,03,26,04,52,3.70
2008,03,26,04,53,3.70
2008,03,26,04,54,3.60
2008,03,26,04,55,3.60
2008,03,26,04,56,3.60
2008,03,26,04,57,3.60
2008,03,26,04,58,3.60
2008,03,26,04,59,3.50
2008,03,26,05,00,3.50
2008,03,26,05,01,3.50
2008,03,26,05,02,3.40
2008,03,26,05,03,3.40
2008,03,26,05,04,3.40
2008,03,26,05,05,3.40
2008,03,26,05,06,3.40
2008,03,26,05,07,3.30
2008,03,26,05,08,3.30
2008,03,26,05,09,3.30
2008,03,26,05,10,3.30
2008,03,26,05,11,3.30
2008,03,26,05,12,3.20
2008,03,26,05,13,3.20
2008,03,26,05,14,3.20
2008,03,26,05,15,3.20
2008,03,26,05,16,3.20
2008,03,26,05,17,3.10
2008,03,26,05,18,3.10
2008,03,26,05,19,3.10
2008,03,26,05,20,3.10
2008,03,26,05,21,3.10
2008,03,26,05,22,3.00
2008,03,26,05,23,3.00
2008,03,26,05,24,3.00
2008,03,26,05,25,3.00
2008,03,26,05,26,2.90
2008,03,26,05,27,2.90
2008,03,26,05,28,2.90
2008,03,26,05,29,2.90
2008,03,26,05,30,2.90
2008,03,26,05,31,2.90
2008,03,26,05,32,2.90
2008,03,26,05,33,2.90
2008,03,26,05,34,2.90
2008,03,26,05,35,2.80
2008,03,26,05,36,2.80
2008,03,26,05,37,2.80
2008,03,26,05,38,2.80
2008,03,26,05,39,2.80
2008,03,26,05,40,2.80
2008,03,26,05,41,2.80
2008,03,26,05,42,2.80
2008,03,26,05,43,2.80
2008,03,26,05,44,2.80
2008,03,26,05,45,2.80
2008,03,26,05,46,2.80
2008,03,26,05,47,2.80
2008,03,26,05,48,2.80
2008,03,26,05,49,2.80
2008,03,26,05,50,2.80
2008,03,26,05,51,2.80
2008,03,26,05,52,2.80
2008,03,26,05,53,2.80
2008,03,26,05,54,2.80
2008,03,26,05,55,2.80
2008,03,26,05,56,2.80
2008,03,26,05,57,2.80
2008,03,26,05,58,2.80
2008,03,26,05,59,2.80
2008,03,26,06,00,2.70
2008,03,26,06,01,2.70
2008,03,26,06,02,2.70
2008,03,26,06,03,2.70
2008,03,26,06,04,2.70
2008,03,26,06,05,2.70
2008,03,26,06,06,2.80
2008,03,26,06,07,2.80
2008,03,26,06,08,2.80
2008,03,26,06,09,2.80
2008,03,26,06,10,2.80
2008,03,26,06,11,2.80
2008,03,26,06,12,2.70
2008,03,26,06,13,2.70
2008,03,26,06,14,2.70
2008,03,26,06,15,2.70
2008,03,26,06,16,2.70
2008,03,26,06,17,2.70
2008,03,26,06,18,2.70
2008,03,26,06,19,2.70
2008,03,26,06,20,2.70
2008,03,26,06,21,2.70
2008,03,26,06,22,2.70
2008,03,26,06,23,2.70
2008,03,26,06,24,2.70
2008,03,26,06,25,2.70
2008,03,26,06,26,2.70
2008,03,26,06,27,2.70
2008,03,26,06,28,2.70
2008,03,26,06,29,2.70
2008,03,26,06,30,2.70
2008,03,26,06,31,2.70
2008,03,26,06,32,2.70
2008,03,26,06,33,2.70
2008,03,26,06,34,2.70
2008,03,26,06,35,2.70
2008,03,26,06,36,2.70
2008,03,26,06,37,2.70
2008,03,26,06,38,2.70
2008,03,26,06,39,2.70
2008,03,26,06,40,2.70
2008,03,26,06,41,2.70
2008,03,26,06,42,2.70
2008,03,26,06,43,2.70
2008,03,26,06,44,2.80
2008,03,26,06,45,2.80
2008,03,26,06,46,2.80
2008,03,26,06,47,2.80
2008,03,26,06,48,2.80
2008,03,26,06,49,2.80
2008,03,26,06,50,2.80
2008,03,26,06,51,2.80
2008,03,26,06,52,2.80
2008,03,26,06,53,2.80
2008,03,26,06,54,2.80
2008,03,26,06,55,2.80
2008,03,26,06,56,2.80
2008,03,26,06,57,2.80
2008,03,26,06,58,2.80
2008,03,26,06,59,2.80
2008,03,26,07,00,2.80
2008,03,26,07,01,2.80
2008,03,26,07,02,2.80
2008,03,26,07,03,2.80
2008,03,26,07,04,2.80
2008,03,26,07,05,2.80
2008,03,26,07,06,2.80
2008,03,26,07,07,2.90
2008,03,26,07,08,2.90
2008,03,26,07,09,2.90
2008,03,26,07,10,2.90
2008,03,26,07,11,2.90
2008,03,26,07,12,2.90
2008,03,26,07,13,2.90
2008,03,26,07,14,2.90
2008,03,26,07,15,2.90
2008,03,26,07,16,2.90
2008,03,26,07,17,2.90
2008,03,26,07,18,2.90
2008,03,26,07,19,2.90
2008,03,26,07,20,2.90
2008,03,26,07,21,2.90
2008,03,26,07,22,2.90
2008,03,26,07,23,2.90
2008,03,26,07,24,2.90
2008,03,26,07,25,3.00
2008,03,26,07,26,3.00
2008,03,26,07,27,3.00
2008,03,26,07,28,3.00
2008,03,26,07,29,3.00
2008,03,26,07,30,3.10
2008,03,26,07,31,3.10
2008,03,26,07,32,3.10
2008,03,26,07,33,3.10
2008,03,26,07,34,3.10
2008,03,26,07,35,3.10
2008,03,26,07,36,3.20
2008,03,26,07,37,3.20
2008,03,26,07,38,3.20
2008,03,26,07,39,3.20
2008,03,26,07,40,3.20
2008,03,26,07,41,3.20
2008,03,26,07,42,3.20
2008,03,26,07,43,3.20
2008,03,26,07,44,3.20
2008,03,26,07,45,3.10
2008,03,26,07,46,3.10
2008,03,26,07,47,3.10
2008,03,26,07,48,3.10
2008,03,26,07,49,3.10
2008,03,26,07,50,3.10
2008,03,26,07,51,3.10
2008,03,26,07,52,3.10
2008,03,26,07,53,3.10
2008,03,26,07,54,3.10
2008,03,26,07,55,3.10
2008,03,26,07,56,3.10
2008,03,26,07,57,3.10
2008,03,26,07,58,3.10
2008,03,26,07,59,3.10
2008,03,26,08,00,3.10
2008,03,26,08,01,3.10
2008,03,26,08,02,3.20
2008,03,26,08,03,3.20
2008,03,26,08,04,3.20
2008,03,26,08,05,3.20
2008,03,26,08,06,3.20
2008,03,26,08,07,3.20
2008,03,26,08,08,3.20
2008,03,26,08,09,3.20
2008,03,26,08,10,3.20
2008,03,26,08,11,3.20
2008,03,26,08,12,3.20
2008,03,26,08,13,3.20
2008,03,26,08,14,3.20
2008,03,26,08,15,3.20
2008,03,26,08,16,3.20
2008,03,26,08,17,3.20
2008,03,26,08,18,3.20
2008,03,26,08,19,3.20
2008,03,26,08,20,3.20
2008,03,26,08,21,3.20
2008,03,26,08,22,3.20
2008,03,26,08,23,3.20
2008,03,26,08,24,3.20
2008,03,26,08,25,3.20
2008,03,26,08,26,3.20
2008,03,26,08,27,3.20
2008,03,26,08,28,3.20
2008,03,26,08,29,3.20
2008,03,26,08,30,3.20
2008,03,26,08,31,3.20
2008,03,26,08,32,3.20
2008,03,26,08,33,3.20
2008,03,26,08,34,3.20
2008,03,26,08,35,3.20
2008,03,26,08,36,3.20
2008,03,26,08,37,3.20
2008,03,26,08,38,3.20
2008,03,26,08,39,3.20
2008,03,26,08,40,3.20
2008,03,26,08,41,3.30
2008,03,26,08,42,3.30
2008,03,26,08,43,3.30
2008,03,26,08,44,3.30
2008,03,26,08,45,3.30
2008,03,26,08,46,3.40
2008,03,26,08,47,3.40
2008,03,26,08,48,3.40
2008,03,26,08,49,3.50
2008,03,26,08,50,3.50
2008,03,26,08,51,3.50
2008,03,26,08,52,3.60
2008,03,26,08,53,3.60
2008,03,26,08,54,3.60
2008,03,26,08,55,3.60
2008,03,26,08,56,3.70
2008,03,26,08,57,3.70
2008,03,26,08,58,3.70
2008,03,26,08,59,3.70
2008,03,26,09,00,3.80
2008,03,26,09,01,3.80
2008,03,26,09,02,3.80
2008,03,26,09,03,3.80
2008,03,26,09,04,3.80
2008,03,26,09,05,3.90
2008,03,26,09,06,4.00
2008,03,26,09,07,4.00
2008,03,26,09,08,4.10
2008,03,26,09,09,4.10
2008,03,26,09,10,4.10
2008,03,26,09,11,4.10
2008,03,26,09,12,4.10
2008,03,26,09,13,4.20
2008,03,26,09,14,4.20
2008,03,26,09,15,4.20
2008,03,26,09,16,4.30
2008,03,26,09,17,4.30
2008,03,26,09,18,4.30
2008,03,26,09,19,4.40
2008,03,26,09,20,4.40
2008,03,26,09,21,4.50
2008,03,26,09,22,4.50
2008,03,26,09,23,4.60
2008,03,26,09,24,4.70
2008,03,26,09,25,4.70
2008,03,26,09,26,4.70
2008,03,26,09,27,4.70
2008,03,26,09,28,4.70
2008,03,26,09,29,4.70
2008,03,26,09,30,4.70
2008,03,26,09,31,4.70
2008,03,26,09,32,4.70
2008,03,26,09,33,4.70
2008,03,26,09,34,4.70
2008,03,26,09,35,4.70
2008,03,26,09,36,4.80
2008,03,26,09,37,4.80
2008,03,26,09,38,4.80
2008,03,26,09,39,4.90
2008,03,26,09,40,4.90
2008,03,26,09,41,4.90
2008,03,26,09,42,4.90
2008,03,26,09,43,4.90
2008,03,26,09,44,5.00
2008,03,26,09,45,5.00
2008,03,26,09,46,5.10
2008,03,26,09,47,5.10
2008,03,26,09,48,5.10
2008,03,26,09,49,5.10
2008,03,26,09,50,5.20
2008,03,26,09,51,5.20
2008,03,26,09,52,5.30
2008,03,26,09,53,5.30
2008,03,26,09,54,5.40
2008,03,26,09,55,5.50
2008,03,26,09,56,5.50
2008,03,26,09,57,5.50
2008,03,26,09,58,5.50
2008,03,26,09,59,5.50
2008,03,26,10,00,5.50
2008,03,26,10,01,5.50
2008,03,26,10,02,5.50
2008,03,26,10,03,5.50
2008,03,26,10,04,5.60
2008,03,26,10,05,5.60
2008,03,26,10,06,5.60
2008,03,26,10,07,5.60
2008,03,26,10,08,5.60
2008,03,26,10,09,5.60
2008,03,26,10,10,5.60
2008,03,26,10,11,5.60
2008,03,26,10,12,5.60
2008,03,26,10,13,5.60
2008,03,26,10,14,5.60
2008,03,26,10,15,5.60
2008,03,26,10,16,5.60
2008,03,26,10,17,5.70
2008,03,26,10,18,5.70
2008,03,26,10,19,5.70
2008,03,26,10,20,5.80
2008,03,26,10,21,5.80
2008,03,26,10,22,5.90
2008,03,26,10,23,5.90
2008,03,26,10,24,5.90
2008,03,26,10,25,6.00
2008,03,26,10,26,6.10
2008,03,26,10,27,6.10
2008,03,26,10,28,6.10
2008,03,26,10,29,6.10
2008,03,26,10,30,6.00
2008,03,26,10,31,6.00
2008,03,26,10,32,6.00
2008,03,26,10,33,6.00
2008,03,26,10,34,6.00
2008,03,26,10,35,6.10
2008,03,26,10,36,6.10
2008,03,26,10,37,6.10
2008,03,26,10,38,6.20
2008,03,26,10,39,6.30
2008,03,26,10,40,6.30
2008,03,26,10,41,6.30
2008,03,26,10,42,6.30
2008,03,26,10,43,6.30
2008,03,26,10,44,6.30
2008,03,26,10,45,6.30
2008,03,26,10,46,6.40
2008,03,26,10,47,6.30
2008,03,26,10,48,6.30
2008,03,26,10,49,6.30
2008,03,26,10,50,6.30
2008,03,26,10,51,6.40
2008,03,26,10,52,6.40
2008,03,26,10,53,6.40
2008,03,26,10,54,6.50
2008,03,26,10,55,6.60
2008,03,26,10,56,6.60
2008,03,26,10,57,6.70
2008,03,26,10,58,6.70
2008,03,26,10,59,6.80
2008,03,26,11,00,6.80
2008,03,26,11,01,6.80
2008,03,26,11,02,6.80
2008,03,26,11,03,6.80
2008,03,26,11,04,6.80
2008,03,26,11,05,6.70
2008,03,26,11,06,6.70
2008,03,26,11,07,6.70
2008,03,26,11,08,6.70
2008,03,26,11,09,6.60
2008,03,26,11,10,6.50
2008,03,26,11,11,6.50
2008,03,26,11,12,6.60
2008,03,26,11,13,6.60
2008,03,26,11,14,6.60
2008,03,26,11,15,6.70
2008,03,26,11,16,6.70
2008,03,26,11,17,6.80
2008,03,26,11,18,6.90
2008,03,26,11,19,6.90
2008,03,26,11,20,7.00
2008,03,26,11,21,7.00
2008,03,26,11,22,7.00
2008,03,26,11,23,7.00
2008,03,26,11,24,7.10
2008,03,26,11,25,7.10
2008,03,26,11,26,7.20
2008,03,26,11,27,7.20
2008,03,26,11,28,7.20
2008,03,26,11,29,7.20
2008,03,26,11,30,7.10
2008,03,26,11,31,7.00
2008,03,26,11,32,6.90
2008,03,26,11,33,6.90
2008,03,26,11,34,6.80
2008,03,26,11,35,6.80
2008,03,26,11,36,6.80
2008,03,26,11,37,6.80
2008,03,26,11,38,6.80
2008,03,26,11,39,6.90
2008,03,26,11,40,6.90
2008,03,26,11,41,6.90
2008,03,26,11,42,7.00
2008,03,26,11,43,6.90
2008,03,26,11,44,6.90
2008,03,26,11,45,6.90
2008,03,26,11,46,7.00
2008,03,26,11,47,7.10
2008,03,26,11,48,7.20
2008,03,26,11,49,7.20
2008,03,26,11,50,7.30
2008,03,26,11,51,7.40
2008,03,26,11,52,7.30
2008,03,26,11,53,7.30
2008,03,26,11,54,7.30
2008,03,26,11,55,7.40
2008,03,26,11,56,7.40
2008,03,26,11,57,7.40
2008,03,26,11,58,7.30
2008,03,26,11,59,7.30
2008,03,26,12,00,7.30
2008,03,26,12,01,7.30
2008,03,26,12,02,7.30
2008,03,26,12,03,7.30
2008,03,26,12,04,7.30
2008,03,26,12,05,7.30
2008,03,26,12,06,7.40
2008,03,26,12,07,7.40
2008,03,26,12,08,7.40
2008,03,26,12,09,7.40
2008,03,26,12,10,7.50
2008,03,26,12,11,7.60
2008,03,26,12,12,7.60
2008,03,26,12,13,7.50
2008,03,26,12,14,7.50
2008,03,26,12,15,7.60
2008,03,26,12,16,7.60
2008,03,26,12,17,7.60
2008,03,26,12,18,7.60
2008,03,26,12,19,7.60
2008,03,26,12,20,7.70
2008,03,26,12,21,7.70
2008,03,26,12,22,7.60
2008,03,26,12,23,7.50
2008,03,26,12,24,7.40
2008,03,26,12,25,7.30
2008,03,26,12,26,7.30
2008,03,26,12,27,7.20
2008,03,26,12,28,7.20
2008,03,26,12,29,7.20
2008,03,26,12,30,7.20
2008,03,26,12,31,7.20
2008,03,26,12,32,7.20
2008,03,26,12,33,7.20
2008,03,26,12,34,7.20
2008,03,26,12,35,7.20
2008,03,26,12,36,7.20
2008,03,26,12,37,7.20
2008,03,26,12,38,7.20
2008,03,26,12,39,7.20
2008,03,26,12,40,7.30
2008,03,26,12,41,7.40
2008,03,26,12,42,7.60
2008,03,26,12,43,7.80
2008,03,26,12,44,7.80
2008,03,26,12,45,7.80
2008,03,26,12,46,7.70
2008,03,26,12,47,7.70
2008,03,26,12,48,7.60
2008,03,26,12,49,7.50
2008,03,26,12,50,7.50
2008,03,26,12,51,7.40
2008,03,26,12,52,7.40
2008,03,26,12,53,7.20
2008,03,26,12,54,7.00
2008,03,26,12,55,6.90
2008,03,26,12,56,6.90
2008,03,26,12,57,6.80
2008,03,26,12,58,6.70
2008,03,26,12,59,6.60
2008,03,26,13,00,6.50
2008,03,26,13,01,6.40
2008,03,26,13,02,6.40
2008,03,26,13,03,6.30
2008,03,26,13,04,6.30
2008,03,26,13,05,6.30
2008,03,26,13,06,6.30
2008,03,26,13,07,6.20
2008,03,26,13,08,6.20
2008,03,26,13,09,6.20
2008,03,26,13,10,6.20
2008,03,26,13,11,6.30
2008,03,26,13,12,6.30
2008,03,26,13,13,6.30
2008,03,26,13,14,6.30
2008,03,26,13,15,6.30
2008,03,26,13,16,6.30
2008,03,26,13,17,6.30
2008,03,26,13,18,6.30
2008,03,26,13,19,6.30
2008,03,26,13,20,6.30
2008,03,26,13,21,6.20
2008,03,26,13,22,6.10
2008,03,26,13,23,6.10
2008,03,26,13,24,6.00
2008,03,26,13,25,6.00
2008,03,26,13,26,6.00
2008,03,26,13,27,6.00
2008,03,26,13,28,6.00
2008,03,26,13,29,6.00
2008,03,26,13,30,6.00
2008,03,26,13,31,6.00
2008,03,26,13,32,6.00
2008,03,26,13,33,6.10
2008,03,26,13,34,6.00
2008,03,26,13,35,6.00
2008,03,26,13,36,6.00
2008,03,26,13,37,5.90
2008,03,26,13,38,6.00
2008,03,26,13,39,6.00
2008,03,26,13,40,6.10
2008,03,26,13,41,6.10
2008,03,26,13,42,6.10
2008,03,26,13,43,6.00
2008,03,26,13,44,6.00
2008,03,26,13,45,6.00
2008,03,26,13,46,6.00
2008,03,26,13,47,5.90
2008,03,26,13,48,6.00
2008,03,26,13,49,6.10
2008,03,26,13,50,6.20
2008,03,26,13,51,6.20
2008,03,26,13,52,6.20
2008,03,26,13,53,6.10
2008,03,26,13,54,6.10
2008,03,26,13,55,6.00
2008,03,26,13,56,6.00
2008,03,26,13,57,6.00
2008,03,26,13,58,6.10
2008,03,26,13,59,6.10
2008,03,26,14,00,6.10
2008,03,26,14,01,6.10
2008,03,26,14,02,6.00
2008,03,26,14,03,6.00
2008,03,26,14,04,6.10
2008,03,26,14,05,6.10
2008,03,26,14,06,6.10
2008,03,26,14,07,6.10
2008,03,26,14,08,6.20
2008,03,26,14,09,6.30
2008,03,26,14,10,6.30
2008,03,26,14,11,6.40
2008,03,26,14,12,6.40
2008,03,26,14,13,6.40
2008,03,26,14,14,6.40
2008,03,26,14,15,6.40
2008,03,26,14,16,6.40
2008,03,26,14,17,6.40
2008,03,26,14,18,6.40
2008,03,26,14,19,6.40
2008,03,26,14,20,6.40
2008,03,26,14,21,6.40
2008,03,26,14,22,6.50
2008,03,26,14,23,6.50
2008,03,26,14,24,6.50
2008,03,26,14,25,6.50
2008,03,26,14,26,6.40
2008,03,26,14,27,6.40
2008,03,26,14,28,6.40
2008,03,26,14,29,6.40
2008,03,26,14,30,6.40
2008,03,26,14,31,6.50
2008,03,26,14,32,6.60
2008,03,26,14,33,6.60
2008,03,26,14,34,6.60
2008,03,26,14,35,6.70
2008,03,26,14,36,6.70
2008,03,26,14,37,6.80
2008,03,26,14,38,6.80
2008,03,26,14,39,6.80
2008,03,26,14,40,6.70
2008,03,26,14,41,6.60
2008,03,26,14,42,6.60
2008,03,26,14,43,6.50
2008,03,26,14,44,6.50
2008,03,26,14,45,6.40
2008,03,26,14,46,6.40
2008,03,26,14,47,6.40
2008,03,26,14,48,6.40
2008,03,26,14,49,6.40
2008,03,26,14,50,6.40
2008,03,26,14,51,6.50
2008,03,26,14,52,6.50
2008,03,26,14,53,6.60
2008,03,26,14,54,6.60
2008,03,26,14,55,6.60
2008,03,26,14,56,6.50
2008,03,26,14,57,6.40
2008,03,26,14,58,6.40
2008,03,26,14,59,6.30
2008,03,26,15,00,6.30
2008,03,26,15,01,6.30
2008,03,26,15,02,6.30
2008,03,26,15,03,6.40
2008,03,26,15,04,6.30
2008,03,26,15,05,6.30
2008,03,26,15,06,6.30
2008,03,26,15,07,6.30
2008,03,26,15,08,6.30
2008,03,26,15,09,6.40
2008,03,26,15,10,6.30
2008,03,26,15,11,6.30
2008,03,26,15,12,6.30
2008,03,26,15,13,6.30
2008,03,26,15,14,6.30
2008,03,26,15,15,6.30
2008,03,26,15,16,6.30
2008,03,26,15,17,6.30
2008,03,26,15,18,6.30
2008,03,26,15,19,6.30
2008,03,26,15,20,6.20
2008,03,26,15,21,6.20
2008,03,26,15,22,6.20
2008,03,26,15,23,6.30
2008,03,26,15,24,6.30
2008,03,26,15,25,6.30
2008,03,26,15,26,6.30
2008,03,26,15,27,6.40
2008,03,26,15,28,6.40
2008,03,26,15,29,6.40
2008,03,26,15,30,6.40
2008,03,26,15,31,6.40
2008,03,26,15,32,6.40
2008,03,26,15,33,6.30
2008,03,26,15,34,6.30
2008,03,26,15,35,6.30
2008,03,26,15,36,6.30
2008,03,26,15,37,6.30
2008,03,26,15,38,6.30
2008,03,26,15,39,6.30
2008,03,26,15,40,6.30
2008,03,26,15,41,6.20
2008,03,26,15,42,6.20
2008,03,26,15,43,6.30
2008,03,26,15,44,6.30
2008,03,26,15,45,6.30
2008,03,26,15,46,6.20
2008,03,26,15,47,5.90
2008,03,26,15,48,5.60
2008,03,26,15,49,5.40
2008,03,26,15,50,5.10
2008,03,26,15,51,4.90
2008,03,26,15,52,4.70
2008,03,26,15,53,4.50
2008,03,26,15,54,4.40
2008,03,26,15,55,4.30
2008,03,26,15,56,4.10
2008,03,26,15,57,4.00
2008,03,26,15,58,3.90
2008,03,26,15,59,3.80
2008,03,26,16,00,3.70
2008,03,26,16,01,3.60
2008,03,26,16,02,3.60
2008,03,26,16,03,3.50
2008,03,26,16,04,3.50
2008,03,26,16,05,3.40
2008,03,26,16,06,3.30
2008,03,26,16,07,3.20
2008,03,26,16,08,3.20
2008,03,26,16,09,3.10
2008,03,26,16,10,3.10
2008,03,26,16,11,3.00
2008,03,26,16,12,3.00
2008,03,26,16,13,3.00
2008,03,26,16,14,2.90
2008,03,26,16,15,2.90
2008,03,26,16,16,2.90
2008,03,26,16,17,2.90
2008,03,26,16,18,2.90
2008,03,26,16,19,2.90
2008,03,26,16,20,2.90
2008,03,26,16,21,2.90
2008,03,26,16,22,2.90
2008,03,26,16,23,2.90
2008,03,26,16,24,2.90
2008,03,26,16,25,2.90
2008,03,26,16,26,2.90
2008,03,26,16,27,2.90
2008,03,26,16,28,2.90
2008,03,26,16,29,2.90
2008,03,26,16,30,3.00
2008,03,26,16,31,3.00
2008,03,26,16,32,3.00
2008,03,26,16,33,3.10
2008,03,26,16,34,3.10
2008,03,26,16,35,3.10
2008,03,26,16,36,3.10
2008,03,26,16,37,3.10
2008,03,26,16,38,3.10
2008,03,26,16,39,3.10
2008,03,26,16,40,3.10
2008,03,26,16,41,3.10
2008,03,26,16,42,3.10
2008,03,26,16,43,3.10
2008,03,26,16,44,3.10
2008,03,26,16,45,3.10
2008,03,26,16,46,3.10
2008,03,26,16,47,3.10
2008,03,26,16,48,3.10
2008,03,26,16,49,3.10
2008,03,26,16,50,3.10
2008,03,26,16,51,3.20
2008,03,26,16,52,3.20
2008,03,26,16,53,3.20
2008,03,26,16,54,3.20
2008,03,26,16,55,3.10
2008,03,26,16,56,3.10
2008,03,26,16,57,3.10
2008,03,26,16,58,3.10
2008,03,26,16,59,3.10
2008,03,26,17,00,3.00
2008,03,26,17,01,3.00
2008,03,26,17,02,3.00
2008,03,26,17,03,3.00
2008,03,26,17,04,3.00
2008,03,26,17,05,2.90
2008,03,26,17,06,3.00
2008,03,26,17,07,3.00
2008,03,26,17,08,3.00
2008,03,26,17,09,3.00
2008,03,26,17,10,3.00
2008,03,26,17,11,3.10
2008,03,26,17,12,3.10
2008,03,26,17,13,3.10
2008,03,26,17,14,3.00
2008,03,26,17,15,3.00
2008,03,26,17,16,3.00
2008,03,26,17,17,3.00
2008,03,26,17,18,3.00
2008,03,26,17,19,3.00
2008,03,26,17,20,3.00
2008,03,26,17,21,3.00
2008,03,26,17,22,2.90
2008,03,26,17,23,3.00
2008,03,26,17,24,3.00
2008,03,26,17,25,3.00
2008,03,26,17,26,3.10
2008,03,26,17,27,3.10
2008,03,26,17,28,3.10
2008,03,26,17,29,3.10
2008,03,26,17,30,3.20
2008,03,26,17,31,3.20
2008,03,26,17,32,3.20
2008,03,26,17,33,3.20
2008,03,26,17,34,3.20
2008,03,26,17,35,3.20
2008,03,26,17,36,3.20
2008,03,26,17,37,3.20
2008,03,26,17,38,3.30
2008,03,26,17,39,3.30
2008,03,26,17,40,3.30
2008,03,26,17,41,3.30
2008,03,26,17,42,3.30
2008,03,26,17,43,3.30
2008,03,26,17,44,3.40
2008,03,26,17,45,3.40
2008,03,26,17,46,3.40
2008,03,26,17,47,3.40
2008,03,26,17,48,3.50
2008,03,26,17,49,3.50
2008,03,26,17,50,3.50
2008,03,26,17,51,3.50
2008,03,26,17,52,3.50
2008,03,26,17,53,3.60
2008,03,26,17,54,3.60
2008,03,26,17,55,3.60
2008,03,26,17,56,3.60
2008,03,26,17,57,3.60
2008,03,26,17,58,3.60
2008,03,26,17,59,3.70
2008,03,26,18,00,3.70
2008,03,26,18,01,3.70
2008,03,26,18,02,3.70
2008,03,26,18,03,3.70
2008,03,26,18,04,3.70
2008,03,26,18,05,3.70
2008,03,26,18,06,3.70